,,PA_Meas_PMT16A,,PR_Meas_QMR101_102,,RH_Meas_QMH101,,SR_Meas_QMS101,,TA_Meas_QMH101,,GenWind,,GenWind,
time,status,PA,status,PR,status,RH,status,SR,status,TA,status,DirAvg,status,SpdAvg,
2013-04-06, 00:00:04,VALID,917.904,VALID,0,VALID,96.7869,VALID,0,VALID,19.5498,VALID,193,VALID,0,
2013-04-06, 00:01:04,VALID,917.889,VALID,0,VALID,96.8021,VALID,0,VALID,19.5258,VALID,194,VALID,0,
2013-04-06, 00:02:04,VALID,917.877,VALID,0,VALID,96.8021,VALID,0,VALID,19.5888,VALID,194,VALID,0,
2013-04-06, 00:03:04,VALID,917.841,VALID,0,VALID,96.825,VALID,0,VALID,19.6488,VALID,51,VALID,0,
2013-04-06, 00:04:04,VALID,917.831,VALID,0,VALID,96.8326,VALID,0,VALID,19.6503,VALID,224,VALID,0,
2013-04-06, 00:05:04,VALID,917.829,VALID,0.2,VALID,96.8098,VALID,0,VALID,19.5468,VALID,254,VALID,0,
2013-04-06, 00:06:04,VALID,917.801,VALID,0,VALID,96.8403,VALID,0,VALID,19.5273,VALID,238,VALID,0,
2013-04-06, 00:07:04,VALID,917.784,VALID,0,VALID,96.8403,VALID,0,VALID,19.5258,VALID,224,VALID,0,
2013-04-06, 00:08:04,VALID,917.826,VALID,0,VALID,96.8326,VALID,0,VALID,19.6127,VALID,224,VALID,0,
2013-04-06, 00:09:04,VALID,917.776,VALID,0,VALID,96.8403,VALID,0,VALID,19.5273,VALID,223,VALID,0,
2013-04-06, 00:10:04,VALID,917.801,VALID,0,VALID,96.8707,VALID,0,VALID,19.5483,VALID,280,VALID,0,
2013-04-06, 00:11:04,VALID,917.771,VALID,0.2,VALID,96.8555,VALID,0,VALID,19.5078,VALID,17,VALID,0,
2013-04-06, 00:12:04,VALID,917.762,VALID,0,VALID,96.8707,VALID,0,VALID,19.5468,VALID,32,VALID,0,
2013-04-06, 00:13:04,VALID,917.785,VALID,0,VALID,96.8707,VALID,0,VALID,19.5678,VALID,345,VALID,0,
2013-04-06, 00:14:04,VALID,917.822,VALID,0,VALID,96.9012,VALID,0,VALID,19.5468,VALID,274,VALID,0,
2013-04-06, 00:15:04,VALID,917.778,VALID,0,VALID,96.9089,VALID,0,VALID,19.5678,VALID,93,VALID,0,
2013-04-06, 00:16:04,VALID,917.725,VALID,0.2,VALID,96.9165,VALID,0,VALID,19.5678,VALID,340,VALID,0,
2013-04-06, 00:17:04,VALID,917.721,VALID,0,VALID,96.9089,VALID,0,VALID,19.5858,VALID,170,VALID,0,
2013-04-06, 00:18:04,VALID,917.704,VALID,0,VALID,96.8936,VALID,0,VALID,19.5678,VALID,272,VALID,0,
2013-04-06, 00:19:04,VALID,917.748,VALID,0,VALID,96.9241,VALID,0,VALID,19.5858,VALID,32,VALID,0,
2013-04-06, 00:20:04,VALID,917.511,VALID,0,VALID,96.9012,VALID,0,VALID,19.5663,VALID,18,VALID,0,
2013-04-06, 00:21:04,VALID,917.629,VALID,0,VALID,96.8631,VALID,0,VALID,19.5288,VALID,91,VALID,0,
2013-04-06, 00:22:04,VALID,917.672,VALID,0,VALID,96.8707,VALID,0,VALID,19.6083,VALID,266,VALID,0,
2013-04-06, 00:23:04,VALID,917.623,VALID,0,VALID,96.8555,VALID,0,VALID,19.5678,VALID,94,VALID,0,
2013-04-06, 00:24:04,VALID,917.541,VALID,0,VALID,96.8631,VALID,0,VALID,19.5678,VALID,139,VALID,0,
2013-04-06, 00:25:04,VALID,917.634,VALID,0,VALID,96.8555,VALID,0,VALID,19.5483,VALID,337,VALID,0,
2013-04-06, 00:26:04,VALID,917.535,VALID,0,VALID,96.8403,VALID,0,VALID,19.5483,VALID,337,VALID,0,
2013-04-06, 00:27:04,VALID,917.56,VALID,0.2,VALID,96.8631,VALID,0,VALID,19.5678,VALID,234,VALID,0,
2013-04-06, 00:28:04,VALID,917.576,VALID,0,VALID,96.8707,VALID,0,VALID,19.5078,VALID,302,VALID,0,
2013-04-06, 00:29:04,VALID,917.455,VALID,0,VALID,96.8707,VALID,0.107441,VALID,19.5273,VALID,122,VALID,0,
2013-04-06, 00:30:04,VALID,917.463,VALID,0,VALID,96.886,VALID,0.107441,VALID,19.5063,VALID,67,VALID,0,
2013-04-06, 00:31:04,VALID,917.434,VALID,0,VALID,96.8936,VALID,0.107441,VALID,19.4868,VALID,210,VALID,0,
2013-04-06, 00:32:04,VALID,917.401,VALID,0,VALID,96.8936,VALID,0.107441,VALID,19.5273,VALID,114,VALID,0,
2013-04-06, 00:33:04,VALID,917.352,VALID,0,VALID,96.947,VALID,0.107441,VALID,19.5273,VALID,90,VALID,0,
2013-04-06, 00:34:04,VALID,917.379,VALID,0,VALID,96.9241,VALID,0.107441,VALID,19.5273,VALID,245,VALID,0,
2013-04-06, 00:35:04,VALID,917.303,VALID,0,VALID,96.9394,VALID,0.107441,VALID,19.4883,VALID,96,VALID,0,
2013-04-06, 00:36:04,VALID,917.302,VALID,0.2,VALID,96.9622,VALID,0.107441,VALID,19.4868,VALID,163,VALID,0,
2013-04-06, 00:37:04,VALID,917.275,VALID,0,VALID,96.9622,VALID,0.107441,VALID,19.5078,VALID,148,VALID,0,
2013-04-06, 00:38:04,VALID,917.357,VALID,0,VALID,96.9775,VALID,0.107441,VALID,19.4658,VALID,260,VALID,0,
2013-04-06, 00:39:04,VALID,917.321,VALID,0,VALID,96.9927,VALID,0.107441,VALID,19.4883,VALID,205,VALID,0,
2013-04-06, 00:40:04,VALID,917.19,VALID,0,VALID,97.0003,VALID,0.107441,VALID,19.5468,VALID,29,VALID,0,
2013-04-06, 00:41:04,VALID,917.195,VALID,0.2,VALID,97.0003,VALID,0,VALID,19.5468,VALID,58,VALID,0,
2013-04-06, 00:42:04,VALID,917.264,VALID,0,VALID,97.0156,VALID,0.107441,VALID,19.5273,VALID,37,VALID,0,
2013-04-06, 00:43:04,VALID,917.21,VALID,0,VALID,97.0156,VALID,0.107441,VALID,19.5078,VALID,25,VALID,0,
2013-04-06, 00:44:04,VALID,917.15,VALID,0,VALID,97.0232,VALID,0.107441,VALID,19.5258,VALID,154,VALID,0,
2013-04-06, 00:45:04,VALID,917.253,VALID,0,VALID,97.0232,VALID,0,VALID,19.5273,VALID,197,VALID,0,
2013-04-06, 00:46:04,VALID,917.152,VALID,0,VALID,97.0385,VALID,0.107441,VALID,19.5273,VALID,126,VALID,0,
2013-04-06, 00:47:04,VALID,917.17,VALID,0,VALID,97.0385,VALID,0.107441,VALID,19.5273,VALID,273,VALID,0,
2013-04-06, 00:48:04,VALID,917.154,VALID,0.2,VALID,97.0537,VALID,0.107441,VALID,19.5678,VALID,53,VALID,0,
2013-04-06, 00:49:04,VALID,917.177,VALID,0,VALID,97.0537,VALID,0.107441,VALID,19.5453,VALID,24,VALID,0,
2013-04-06, 00:50:04,VALID,917.142,VALID,0,VALID,97.069,VALID,0.107441,VALID,19.5663,VALID,33,VALID,0,
2013-04-06, 00:51:04,VALID,917.155,VALID,0,VALID,97.0766,VALID,0.107441,VALID,19.5663,VALID,193,VALID,0,
2013-04-06, 00:52:04,VALID,917.143,VALID,0,VALID,97.0918,VALID,0.107441,VALID,19.5468,VALID,74,VALID,0,
2013-04-06, 00:53:04,VALID,917.133,VALID,0,VALID,97.0918,VALID,0.107441,VALID,19.5663,VALID,30,VALID,0,
2013-04-06, 00:54:04,VALID,917.123,VALID,0,VALID,97.0918,VALID,0.107441,VALID,19.5273,VALID,317,VALID,0,
2013-04-06, 00:55:04,VALID,917.114,VALID,0,VALID,97.0918,VALID,0.107441,VALID,19.5468,VALID,31,VALID,0,
2013-04-06, 00:56:04,VALID,917.087,VALID,0,VALID,97.0842,VALID,0.107441,VALID,19.5258,VALID,97,VALID,0,
2013-04-06, 00:57:04,VALID,917.081,VALID,0,VALID,97.0994,VALID,0.107441,VALID,19.5468,VALID,61,VALID,0,
2013-04-06, 00:58:04,VALID,917.119,VALID,0,VALID,97.1223,VALID,0.107441,VALID,19.5468,VALID,91,VALID,0,
2013-04-06, 00:59:04,VALID,917.063,VALID,0,VALID,97.1223,VALID,0,VALID,19.5288,VALID,79,VALID,0,
2013-04-06, 01:00:04,VALID,917.065,VALID,0,VALID,97.1299,VALID,0,VALID,19.5693,VALID,123,VALID,0,
2013-04-06, 01:01:04,VALID,916.996,VALID,0,VALID,97.1376,VALID,0,VALID,19.5498,VALID,25,VALID,0,
2013-04-06, 01:02:04,VALID,916.989,VALID,0,VALID,97.1299,VALID,0,VALID,19.5288,VALID,56,VALID,0,
2013-04-06, 01:03:04,VALID,916.894,VALID,0,VALID,97.1528,VALID,0,VALID,19.5288,VALID,26,VALID,0,
2013-04-06, 01:04:04,VALID,916.995,VALID,0.2,VALID,97.1376,VALID,0,VALID,19.5078,VALID,220,VALID,0,
2013-04-06, 01:05:04,VALID,916.998,VALID,0,VALID,97.1604,VALID,0,VALID,19.5273,VALID,1,VALID,0,
2013-04-06, 01:06:04,VALID,916.939,VALID,0,VALID,97.1833,VALID,0,VALID,19.5303,VALID,358,VALID,0,
2013-04-06, 01:07:04,VALID,916.967,VALID,0,VALID,97.1681,VALID,0,VALID,19.5288,VALID,227,VALID,0,
2013-04-06, 01:08:04,VALID,916.988,VALID,0,VALID,97.1681,VALID,0,VALID,19.5498,VALID,213,VALID,0,
2013-04-06, 01:09:04,VALID,916.909,VALID,0,VALID,97.1452,VALID,0,VALID,19.5108,VALID,248,VALID,0,
2013-04-06, 01:10:04,VALID,916.836,VALID,0,VALID,97.1757,VALID,0,VALID,19.5288,VALID,45,VALID,0,
2013-04-06, 01:11:04,VALID,916.862,VALID,0,VALID,97.1909,VALID,0,VALID,19.5483,VALID,34,VALID,0,
2013-04-06, 01:12:04,VALID,916.81,VALID,0,VALID,97.1757,VALID,0,VALID,19.5498,VALID,35,VALID,0,
2013-04-06, 01:13:04,VALID,916.927,VALID,0,VALID,97.1909,VALID,0,VALID,19.5093,VALID,113,VALID,0,
2013-04-06, 01:14:04,VALID,916.859,VALID,0.2,VALID,97.2214,VALID,0,VALID,19.5288,VALID,156,VALID,0,
2013-04-06, 01:15:04,VALID,916.859,VALID,0,VALID,97.2138,VALID,0,VALID,19.5093,VALID,90,VALID,0,
2013-04-06, 01:16:04,VALID,916.802,VALID,0,VALID,97.1909,VALID,0,VALID,19.5093,VALID,69,VALID,0,
2013-04-06, 01:17:04,VALID,916.82,VALID,0,VALID,97.229,VALID,0,VALID,19.5078,VALID,182,VALID,0,
2013-04-06, 01:18:04,VALID,916.749,VALID,0,VALID,97.2138,VALID,0,VALID,19.5483,VALID,37,VALID,0,
2013-04-06, 01:19:04,VALID,916.787,VALID,0,VALID,97.1986,VALID,0,VALID,19.5693,VALID,166,VALID,0,
2013-04-06, 01:20:04,VALID,916.725,VALID,0.2,VALID,97.2138,VALID,0,VALID,19.4883,VALID,46,VALID,0,
2013-04-06, 01:21:04,VALID,916.779,VALID,0,VALID,97.229,VALID,0,VALID,19.5078,VALID,23,VALID,0,
2013-04-06, 01:22:04,VALID,916.762,VALID,0,VALID,97.229,VALID,0,VALID,19.5288,VALID,29,VALID,0,
2013-04-06, 01:23:04,VALID,916.777,VALID,0,VALID,97.2443,VALID,0,VALID,19.4658,VALID,53,VALID,0,
2013-04-06, 01:24:04,VALID,916.796,VALID,0,VALID,97.229,VALID,0,VALID,19.4703,VALID,291,VALID,0,
2013-04-06, 01:25:04,VALID,916.736,VALID,0,VALID,97.229,VALID,0,VALID,19.4898,VALID,110,VALID,0,
2013-04-06, 01:26:04,VALID,916.743,VALID,0,VALID,97.2443,VALID,0,VALID,19.4718,VALID,253,VALID,0,
2013-04-06, 01:27:04,VALID,916.666,VALID,0,VALID,97.229,VALID,0,VALID,19.4927,VALID,126,VALID,0,
2013-04-06, 01:28:04,VALID,916.802,VALID,0,VALID,97.2443,VALID,0,VALID,19.4313,VALID,243,VALID,0,
2013-04-06, 01:29:04,VALID,916.707,VALID,0,VALID,97.2443,VALID,0,VALID,19.4942,VALID,48,VALID,0,
2013-04-06, 01:30:04,VALID,916.699,VALID,0,VALID,97.2519,VALID,0,VALID,19.4777,VALID,101,VALID,0,
2013-04-06, 01:31:04,VALID,916.64,VALID,0,VALID,97.2519,VALID,0,VALID,19.3323,VALID,217,VALID,0,
2013-04-06, 01:32:04,VALID,916.669,VALID,0,VALID,97.2595,VALID,0,VALID,19.4777,VALID,178,VALID,0,
2013-04-06, 01:33:04,VALID,916.623,VALID,0,VALID,97.2519,VALID,0,VALID,19.3937,VALID,169,VALID,0,
2013-04-06, 01:34:04,VALID,916.667,VALID,0,VALID,97.2595,VALID,0,VALID,19.3143,VALID,210,VALID,0,
2013-04-06, 01:35:04,VALID,916.61,VALID,0,VALID,97.2595,VALID,0,VALID,19.3323,VALID,175,VALID,0,
2013-04-06, 01:36:04,VALID,916.584,VALID,0,VALID,97.2595,VALID,0,VALID,19.3323,VALID,51,VALID,0,
2013-04-06, 01:37:04,VALID,916.61,VALID,0,VALID,97.2672,VALID,0,VALID,19.3742,VALID,72,VALID,0,
2013-04-06, 01:38:04,VALID,916.621,VALID,0,VALID,97.2595,VALID,0,VALID,19.3937,VALID,142,VALID,0,
2013-04-06, 01:39:04,VALID,916.545,VALID,0,VALID,97.2748,VALID,0,VALID,19.3533,VALID,223,VALID,0,
2013-04-06, 01:40:04,VALID,916.553,VALID,0,VALID,97.2672,VALID,0,VALID,19.3533,VALID,339,VALID,0,
2013-04-06, 01:41:04,VALID,916.563,VALID,0.2,VALID,97.2824,VALID,0,VALID,19.4162,VALID,330,VALID,0,
2013-04-06, 01:42:04,VALID,916.54,VALID,0,VALID,97.2748,VALID,0,VALID,19.3757,VALID,198,VALID,0,
2013-04-06, 01:43:04,VALID,916.518,VALID,0,VALID,97.2672,VALID,0,VALID,19.3323,VALID,258,VALID,0,
2013-04-06, 01:44:04,VALID,916.536,VALID,0,VALID,97.29,VALID,0,VALID,19.3937,VALID,260,VALID,0,
2013-04-06, 01:45:04,VALID,916.487,VALID,0.2,VALID,97.2824,VALID,0,VALID,19.4147,VALID,20,VALID,0,
2013-04-06, 01:46:04,VALID,916.477,VALID,0.2,VALID,97.29,VALID,0,VALID,19.4132,VALID,37,VALID,0,
2013-04-06, 01:47:04,VALID,916.524,VALID,0,VALID,97.2748,VALID,0,VALID,19.3923,VALID,130,VALID,0,
2013-04-06, 01:48:04,VALID,916.488,VALID,0,VALID,97.3053,VALID,0,VALID,19.3952,VALID,152,VALID,0,
2013-04-06, 01:49:04,VALID,916.443,VALID,0,VALID,97.2977,VALID,0,VALID,19.4147,VALID,188,VALID,0,
2013-04-06, 01:50:04,VALID,916.44,VALID,0,VALID,97.29,VALID,0,VALID,19.3742,VALID,184,VALID,0,
2013-04-06, 01:51:04,VALID,916.401,VALID,0,VALID,97.2977,VALID,0,VALID,19.3937,VALID,264,VALID,0,
2013-04-06, 01:52:04,VALID,916.416,VALID,0,VALID,97.3053,VALID,0,VALID,19.4118,VALID,58,VALID,0,
2013-04-06, 01:53:04,VALID,916.342,VALID,0,VALID,97.2977,VALID,0,VALID,19.3728,VALID,211,VALID,0,
2013-04-06, 01:54:04,VALID,916.382,VALID,0,VALID,97.2977,VALID,0,VALID,19.3728,VALID,2,VALID,0,
2013-04-06, 01:55:04,VALID,916.382,VALID,0,VALID,97.3053,VALID,0,VALID,19.4132,VALID,299,VALID,0,
2013-04-06, 01:56:04,VALID,916.334,VALID,0,VALID,97.2977,VALID,0,VALID,19.4147,VALID,14,VALID,0,
2013-04-06, 01:57:04,VALID,916.249,VALID,0.2,VALID,97.3129,VALID,0,VALID,19.3323,VALID,67,VALID,0,
2013-04-06, 01:58:04,VALID,916.231,VALID,0,VALID,97.3129,VALID,0,VALID,19.3518,VALID,128,VALID,0,
2013-04-06, 01:59:04,VALID,916.277,VALID,0,VALID,97.2977,VALID,0,VALID,19.3742,VALID,53,VALID,0,
2013-04-06, 02:00:04,VALID,916.201,VALID,0,VALID,97.2977,VALID,0,VALID,19.3937,VALID,166,VALID,0,
2013-04-06, 02:01:04,VALID,916.066,VALID,0,VALID,97.2977,VALID,0,VALID,19.3728,VALID,34,VALID,0,
2013-04-06, 02:02:04,VALID,916.147,VALID,0,VALID,97.29,VALID,0,VALID,19.3728,VALID,208,VALID,0,
2013-04-06, 02:03:04,VALID,916.115,VALID,0,VALID,97.3129,VALID,0,VALID,19.3742,VALID,111,VALID,0,
2013-04-06, 02:04:04,VALID,916.113,VALID,0,VALID,97.3053,VALID,0,VALID,19.3518,VALID,28,VALID,0,
2013-04-06, 02:05:04,VALID,916.058,VALID,0,VALID,97.2977,VALID,0,VALID,19.3728,VALID,30,VALID,0,
2013-04-06, 02:06:04,VALID,916.015,VALID,0,VALID,97.3053,VALID,0,VALID,19.3937,VALID,186,VALID,0,
2013-04-06, 02:07:04,VALID,916.077,VALID,0,VALID,97.3281,VALID,0,VALID,19.3937,VALID,189,VALID,0,
2013-04-06, 02:08:04,VALID,916,VALID,0,VALID,97.3053,VALID,0,VALID,19.3713,VALID,76,VALID,0,
2013-04-06, 02:09:04,VALID,916.005,VALID,0,VALID,97.3129,VALID,0,VALID,19.3533,VALID,124,VALID,0,
2013-04-06, 02:10:04,VALID,915.998,VALID,0,VALID,97.3053,VALID,0,VALID,19.3533,VALID,311,VALID,0,
2013-04-06, 02:11:04,VALID,915.912,VALID,0,VALID,97.29,VALID,0,VALID,19.4147,VALID,19,VALID,0,
2013-04-06, 02:12:04,VALID,915.898,VALID,0,VALID,97.2977,VALID,0,VALID,19.3547,VALID,37,VALID,0,
2013-04-06, 02:13:04,VALID,915.942,VALID,0,VALID,97.3053,VALID,0,VALID,19.3772,VALID,156,VALID,0,
2013-04-06, 02:14:04,VALID,915.94,VALID,0,VALID,97.2977,VALID,0,VALID,19.3533,VALID,199,VALID,0,
2013-04-06, 02:15:04,VALID,915.926,VALID,0,VALID,97.2977,VALID,0,VALID,19.3772,VALID,39,VALID,0,
2013-04-06, 02:16:04,VALID,915.939,VALID,0,VALID,97.29,VALID,0,VALID,19.2753,VALID,267,VALID,0,
2013-04-06, 02:17:04,VALID,915.914,VALID,0,VALID,97.2672,VALID,0,VALID,19.2948,VALID,132,VALID,0,
2013-04-06, 02:18:04,VALID,915.926,VALID,0,VALID,97.29,VALID,0,VALID,19.3143,VALID,97,VALID,0,
2013-04-06, 02:19:04,VALID,915.87,VALID,0,VALID,97.2748,VALID,0,VALID,19.2962,VALID,30,VALID,0,
2013-04-06, 02:20:04,VALID,915.898,VALID,0,VALID,97.2824,VALID,0,VALID,19.3143,VALID,48,VALID,0,
2013-04-06, 02:21:04,VALID,915.907,VALID,0,VALID,97.2748,VALID,0,VALID,19.3338,VALID,326,VALID,0,
2013-04-06, 02:22:04,VALID,915.873,VALID,0,VALID,97.2824,VALID,0,VALID,19.3338,VALID,191,VALID,0,
2013-04-06, 02:23:04,VALID,915.882,VALID,0,VALID,97.2824,VALID,0,VALID,19.4177,VALID,306,VALID,0,
2013-04-06, 02:24:04,VALID,915.876,VALID,0,VALID,97.2824,VALID,0,VALID,19.3143,VALID,201,VALID,0,
2013-04-06, 02:25:04,VALID,915.875,VALID,0,VALID,97.2748,VALID,0,VALID,19.2738,VALID,110,VALID,0,
2013-04-06, 02:26:04,VALID,915.825,VALID,0,VALID,97.2595,VALID,0,VALID,19.2514,VALID,137,VALID,0,
2013-04-06, 02:27:04,VALID,915.787,VALID,0,VALID,97.2824,VALID,0,VALID,19.2948,VALID,358,VALID,0,
2013-04-06, 02:28:04,VALID,915.72,VALID,0,VALID,97.2824,VALID,0,VALID,19.2738,VALID,30,VALID,0,
2013-04-06, 02:29:04,VALID,915.703,VALID,0,VALID,97.2595,VALID,0.107441,VALID,19.2918,VALID,356,VALID,0,
2013-04-06, 02:30:04,VALID,915.723,VALID,0,VALID,97.2748,VALID,0,VALID,19.3338,VALID,252,VALID,0,
2013-04-06, 02:31:04,VALID,915.732,VALID,0,VALID,97.2824,VALID,0,VALID,19.3742,VALID,206,VALID,0,
2013-04-06, 02:32:04,VALID,915.707,VALID,0,VALID,97.2824,VALID,0.107441,VALID,19.3338,VALID,29,VALID,0,
2013-04-06, 02:33:04,VALID,915.724,VALID,0,VALID,97.29,VALID,0,VALID,19.2918,VALID,222,VALID,0,
2013-04-06, 02:34:04,VALID,915.701,VALID,0,VALID,97.2519,VALID,0.107441,VALID,19.3338,VALID,205,VALID,0,
2013-04-06, 02:35:04,VALID,915.702,VALID,0,VALID,97.2748,VALID,0,VALID,19.2918,VALID,46,VALID,0,
2013-04-06, 02:36:04,VALID,915.631,VALID,0,VALID,97.2824,VALID,0,VALID,19.3547,VALID,43,VALID,0,
2013-04-06, 02:37:04,VALID,915.594,VALID,0,VALID,97.2824,VALID,0,VALID,19.2918,VALID,20,VALID,0,
2013-04-06, 02:38:04,VALID,915.603,VALID,0,VALID,97.29,VALID,0,VALID,19.2723,VALID,343,VALID,0,
2013-04-06, 02:39:04,VALID,915.533,VALID,0,VALID,97.2595,VALID,0,VALID,19.2918,VALID,344,VALID,0,
2013-04-06, 02:40:04,VALID,915.529,VALID,0,VALID,97.29,VALID,0.107441,VALID,19.2514,VALID,126,VALID,0,
2013-04-06, 02:41:04,VALID,915.438,VALID,0,VALID,97.2672,VALID,0.107441,VALID,19.3143,VALID,75,VALID,0,
2013-04-06, 02:42:04,VALID,915.487,VALID,0,VALID,97.2824,VALID,0.107441,VALID,19.2918,VALID,214,VALID,0,
2013-04-06, 02:43:04,VALID,915.489,VALID,0,VALID,97.29,VALID,0,VALID,19.2738,VALID,341,VALID,0,
2013-04-06, 02:44:05,VALID,915.439,VALID,0,VALID,97.2824,VALID,0,VALID,19.2543,VALID,62,VALID,0,
2013-04-06, 02:45:05,VALID,915.48,VALID,0.2,VALID,97.29,VALID,0,VALID,19.3143,VALID,279,VALID,0,
2013-04-06, 02:46:05,VALID,915.422,VALID,0,VALID,97.2672,VALID,0,VALID,19.3157,VALID,159,VALID,0,
2013-04-06, 02:47:05,VALID,915.391,VALID,0,VALID,97.2748,VALID,0,VALID,19.3352,VALID,240,VALID,0,
2013-04-06, 02:48:05,VALID,915.4,VALID,0,VALID,97.2672,VALID,0,VALID,19.2558,VALID,288,VALID,0,
2013-04-06, 02:49:05,VALID,915.414,VALID,0,VALID,97.2824,VALID,0,VALID,19.2948,VALID,347,VALID,0,
2013-04-06, 02:50:05,VALID,915.393,VALID,0,VALID,97.2672,VALID,0,VALID,19.2933,VALID,297,VALID,0,
2013-04-06, 02:51:05,VALID,915.347,VALID,0,VALID,97.2672,VALID,0,VALID,19.3157,VALID,100,VALID,0,
2013-04-06, 02:52:05,VALID,915.334,VALID,0,VALID,97.29,VALID,0,VALID,19.3157,VALID,338,VALID,0,
2013-04-06, 02:53:05,VALID,915.311,VALID,0,VALID,97.2672,VALID,0,VALID,19.2948,VALID,341,VALID,0,
2013-04-06, 02:54:05,VALID,915.319,VALID,0,VALID,97.2672,VALID,0,VALID,19.3352,VALID,39,VALID,0,
2013-04-06, 02:55:05,VALID,915.304,VALID,0,VALID,97.2595,VALID,0,VALID,19.3352,VALID,40,VALID,0,
2013-04-06, 02:56:05,VALID,915.222,VALID,0,VALID,97.2443,VALID,0,VALID,19.3338,VALID,7,VALID,0,
2013-04-06, 02:57:05,VALID,915.239,VALID,0,VALID,97.2672,VALID,0,VALID,19.2738,VALID,259,VALID,0,
2013-04-06, 02:58:05,VALID,915.217,VALID,0.2,VALID,97.2748,VALID,0,VALID,19.3352,VALID,175,VALID,0,
2013-04-06, 02:59:05,VALID,915.144,VALID,0,VALID,97.2824,VALID,0,VALID,19.3143,VALID,42,VALID,0,
2013-04-06, 03:00:05,VALID,915.183,VALID,0,VALID,97.2519,VALID,0,VALID,19.3577,VALID,347,VALID,0,
2013-04-06, 03:01:05,VALID,915.179,VALID,0,VALID,97.2672,VALID,0,VALID,19.3352,VALID,359,VALID,0,
2013-04-06, 03:02:05,VALID,915.152,VALID,0,VALID,97.2824,VALID,0,VALID,19.3352,VALID,274,VALID,0,
2013-04-06, 03:03:05,VALID,915.175,VALID,0.2,VALID,97.2824,VALID,0,VALID,19.2948,VALID,337,VALID,0,
2013-04-06, 03:04:05,VALID,915.172,VALID,0,VALID,97.2748,VALID,0,VALID,19.2933,VALID,18,VALID,0,
2013-04-06, 03:05:05,VALID,915.099,VALID,0,VALID,97.2977,VALID,0,VALID,19.2933,VALID,31,VALID,0,
2013-04-06, 03:06:05,VALID,915.133,VALID,0,VALID,97.29,VALID,0,VALID,19.3338,VALID,303,VALID,0,
2013-04-06, 03:07:05,VALID,915.111,VALID,0,VALID,97.2595,VALID,0,VALID,19.3128,VALID,20,VALID,0,
2013-04-06, 03:08:05,VALID,915.121,VALID,0,VALID,97.2672,VALID,0,VALID,19.3143,VALID,25,VALID,0,
2013-04-06, 03:09:05,VALID,915.095,VALID,0,VALID,97.2748,VALID,0,VALID,19.3338,VALID,322,VALID,0,
2013-04-06, 03:10:05,VALID,915.057,VALID,0,VALID,97.2672,VALID,0,VALID,19.3113,VALID,347,VALID,0,
2013-04-06, 03:11:05,VALID,915.087,VALID,0,VALID,97.2748,VALID,0,VALID,19.3338,VALID,291,VALID,0,
2013-04-06, 03:12:05,VALID,915.065,VALID,0,VALID,97.2748,VALID,0,VALID,19.3533,VALID,59,VALID,0,
2013-04-06, 03:13:05,VALID,915.034,VALID,0,VALID,97.2824,VALID,0,VALID,19.3338,VALID,65,VALID,0,
2013-04-06, 03:14:05,VALID,915.048,VALID,0,VALID,97.2595,VALID,0.107441,VALID,19.3323,VALID,253,VALID,0,
2013-04-06, 03:15:05,VALID,915.042,VALID,0,VALID,97.2977,VALID,0,VALID,19.3308,VALID,66,VALID,0,
2013-04-06, 03:16:05,VALID,915.104,VALID,0,VALID,97.2824,VALID,0.107441,VALID,19.3923,VALID,18,VALID,0,
2013-04-06, 03:17:05,VALID,915.085,VALID,0,VALID,97.2824,VALID,0.107441,VALID,19.3698,VALID,30,VALID,0,
2013-04-06, 03:18:05,VALID,915.041,VALID,0.2,VALID,97.2748,VALID,0,VALID,19.3518,VALID,296,VALID,0,
2013-04-06, 03:19:05,VALID,914.979,VALID,0,VALID,97.2824,VALID,0,VALID,19.3728,VALID,35,VALID,0,
2013-04-06, 03:20:05,VALID,915.005,VALID,0,VALID,97.29,VALID,0,VALID,19.3533,VALID,278,VALID,0,
2013-04-06, 03:21:05,VALID,914.917,VALID,0,VALID,97.29,VALID,0,VALID,19.3323,VALID,44,VALID,0,
2013-04-06, 03:22:05,VALID,914.978,VALID,0,VALID,97.2824,VALID,0.107441,VALID,19.3518,VALID,218,VALID,0,
2013-04-06, 03:23:05,VALID,914.988,VALID,0,VALID,97.2748,VALID,0.107441,VALID,19.3323,VALID,340,VALID,0,
2013-04-06, 03:24:05,VALID,914.997,VALID,0,VALID,97.2824,VALID,0.107441,VALID,19.3518,VALID,2,VALID,0,
2013-04-06, 03:25:05,VALID,914.982,VALID,0,VALID,97.2672,VALID,0.107441,VALID,19.3323,VALID,270,VALID,0,
2013-04-06, 03:26:05,VALID,915.018,VALID,0,VALID,97.2672,VALID,0.107441,VALID,19.3323,VALID,206,VALID,0,
2013-04-06, 03:27:05,VALID,914.924,VALID,0,VALID,97.2672,VALID,0.107441,VALID,19.3099,VALID,358,VALID,0,
2013-04-06, 03:28:05,VALID,914.978,VALID,0,VALID,97.2443,VALID,0.107441,VALID,19.3308,VALID,15,VALID,0,
2013-04-06, 03:29:05,VALID,914.954,VALID,0.2,VALID,97.2748,VALID,0,VALID,19.3323,VALID,78,VALID,0,
2013-04-06, 03:30:05,VALID,914.926,VALID,0,VALID,97.29,VALID,0,VALID,19.3308,VALID,83,VALID,0,
2013-04-06, 03:31:05,VALID,914.927,VALID,0,VALID,97.2672,VALID,0,VALID,19.3323,VALID,102,VALID,0,
2013-04-06, 03:32:05,VALID,914.941,VALID,0,VALID,97.2824,VALID,0,VALID,19.3937,VALID,175,VALID,0,
2013-04-06, 03:33:05,VALID,914.937,VALID,0,VALID,97.2977,VALID,0,VALID,19.3518,VALID,176,VALID,0,
2013-04-06, 03:34:05,VALID,914.872,VALID,0,VALID,97.2672,VALID,0,VALID,19.3294,VALID,37,VALID,0,
2013-04-06, 03:35:05,VALID,914.876,VALID,0,VALID,97.2824,VALID,0,VALID,19.3923,VALID,226,VALID,0,
2013-04-06, 03:36:05,VALID,914.898,VALID,0.2,VALID,97.2519,VALID,0,VALID,19.4132,VALID,265,VALID,0,
2013-04-06, 03:37:05,VALID,914.893,VALID,0,VALID,97.2748,VALID,0,VALID,19.4118,VALID,280,VALID,0,
2013-04-06, 03:38:05,VALID,914.95,VALID,0,VALID,97.2748,VALID,0.107441,VALID,19.4103,VALID,350,VALID,0,
2013-04-06, 03:39:05,VALID,914.863,VALID,0,VALID,97.2595,VALID,0,VALID,19.4088,VALID,60,VALID,0,
2013-04-06, 03:40:05,VALID,914.874,VALID,0.2,VALID,97.2672,VALID,0,VALID,19.4523,VALID,205,VALID,0,
2013-04-06, 03:41:05,VALID,914.861,VALID,0,VALID,97.2595,VALID,0,VALID,19.4103,VALID,27,VALID,0,
2013-04-06, 03:42:05,VALID,914.865,VALID,0,VALID,97.2672,VALID,0,VALID,19.3908,VALID,49,VALID,0,
2013-04-06, 03:43:05,VALID,914.891,VALID,0.2,VALID,97.2443,VALID,0,VALID,19.4103,VALID,152,VALID,0,
2013-04-06, 03:44:05,VALID,914.854,VALID,0,VALID,97.29,VALID,0,VALID,19.4298,VALID,167,VALID,0,
2013-04-06, 03:45:05,VALID,914.918,VALID,0,VALID,97.2595,VALID,0,VALID,19.4508,VALID,57,VALID,0,
2013-04-06, 03:46:05,VALID,914.944,VALID,0,VALID,97.2519,VALID,0,VALID,19.4103,VALID,58,VALID,0,
2013-04-06, 03:47:05,VALID,914.906,VALID,0,VALID,97.2748,VALID,0,VALID,19.4313,VALID,122,VALID,0,
2013-04-06, 03:48:05,VALID,914.911,VALID,0.2,VALID,97.2748,VALID,0,VALID,19.4313,VALID,34,VALID,0,
2013-04-06, 03:49:05,VALID,914.914,VALID,0,VALID,97.2595,VALID,0,VALID,19.4508,VALID,2,VALID,0,
2013-04-06, 03:50:05,VALID,914.845,VALID,0,VALID,97.2748,VALID,0,VALID,19.4088,VALID,55,VALID,0,
2013-04-06, 03:51:05,VALID,914.921,VALID,0,VALID,97.2672,VALID,0,VALID,19.4088,VALID,330,VALID,0,
2013-04-06, 03:52:05,VALID,914.89,VALID,0,VALID,97.2672,VALID,0,VALID,19.4898,VALID,39,VALID,0,
2013-04-06, 03:53:05,VALID,914.867,VALID,0,VALID,97.2748,VALID,0,VALID,19.3908,VALID,52,VALID,0,
2013-04-06, 03:54:05,VALID,914.946,VALID,0,VALID,97.29,VALID,0,VALID,19.4088,VALID,48,VALID,0,
2013-04-06, 03:55:05,VALID,914.798,VALID,0,VALID,97.29,VALID,0,VALID,19.4103,VALID,33,VALID,0,
2013-04-06, 03:56:05,VALID,914.843,VALID,0,VALID,97.2748,VALID,0,VALID,19.5122,VALID,25,VALID,0,
2013-04-06, 03:57:05,VALID,914.854,VALID,0.2,VALID,97.29,VALID,0,VALID,19.5108,VALID,44,VALID,0,